COSMOS 2534 (758)

Last updated on Sun Apr 12 2026 00:03:25 GMT+0000 (Coordinated Universal Time)

1 44299U 19030A 26098.97648517 .00000000 00000+0 00000+0 0 9991 2 44299 64.3666 194.9456 0010930 277.8745 45.0202 2.13102521 53448
UTC large
Height (km)
Speed (km/s)
/
Latitude / Longitude
Inclination (degrees)
Orbital Period (minutes)
Azimuth
Elevation
Range (km)
Doppler Factor

Next 0 passes for location: London (51.5072 / 0.1276)

Sorry there are no passes over London.
COSMOS 2534 (758)